Location: Berg
(47.2344°N, 9.5296°E)
Time: 10:18:15
(UTC+00:00)

Cosmos 44 - Visible Passes

Search period start: 09 May 2021 00:00
Search period end: 19 May 2021 00:00
Orbit: 571 x 791 km, 65.1° (Epoch: 08 May)

Date Brightness Start Highest point End Pass type
(mag) Time Alt. Az. Time Alt. Az. Time Alt. Az.
09 May 5.5 20:30:57 10° NNW 20:35:10 22° NNE 20:39:19 10° E visible
09 May 3.5 22:11:50 10° NW 22:17:19 79° NE 22:18:21 58° ESE visible
09 May 5.3 23:54:16 10° WNW 23:56:45 18° W 23:56:45 18° W visible
10 May 5.9 19:27:10 10° NNW 19:30:15 15° NNE 19:33:19 10° NE visible
10 May 4.5 21:07:55 10° NNW 21:13:03 39° NE 21:15:57 22° E visible
10 May 4.0 22:49:17 10° NW 22:54:21 44° WSW 22:54:21 44° WSW visible
11 May 5.3 20:04:08 10° NNW 20:08:26 23° NNE 20:12:39 10° E visible
11 May 3.5 21:45:03 10° NW 21:50:31 84° NE 21:51:59 49° SE visible
11 May 5.4 23:27:39 10° WNW 23:30:23 17° W 23:30:23 17° W visible
12 May 4.4 20:41:06 10° NNW 20:46:17 41° NE 20:49:39 19° ESE visible
12 May 4.1 22:22:32 10° NW 22:27:35 41° WSW 22:28:04 40° SW visible
13 May 5.2 19:37:19 10° NNW 19:41:42 24° NNE 19:46:00 10° E visible
13 May 3.4 21:18:14 10° NW 21:23:43 89° NE 21:25:46 39° SE visible
13 May 5.4 23:01:03 10° WNW 23:04:11 16° WSW 23:04:11 16° WSW visible
14 May 4.3 20:14:17 10° NNW 20:19:31 44° NE 20:23:31 16° ESE visible
14 May 4.3 21:55:47 10° NW 22:00:44 38° WSW 22:01:55 33° SW visible
15 May 3.5 20:51:27 10° NW 20:56:55 86° SW 20:59:42 29° SSE visible
15 May 5.5 22:34:29 10° WNW 22:37:21 15° WSW 22:38:07 14° WSW visible
16 May 4.2 19:47:29 10° NNW 19:52:44 46° NE 19:57:31 11° ESE visible
16 May 4.5 21:29:03 10° NW 21:33:54 35° WSW 21:35:57 26° SSW visible
17 May 3.5 20:24:40 10° NW 20:30:07 80° SW 20:33:48 20° SSE visible
17 May 5.6 22:07:58 10° WNW 22:10:28 13° WSW 22:12:13 12° SW visible
18 May 4.7 21:02:18 10° NW 21:07:04 32° WSW 21:10:07 18° SSW visible
